Regional Weather Roundup
Issued by NWS

Home | Current Version | Previous Version | Text Only | Print | Product List | Glossary Off
Versions: 1 2 3 4 5 6 7 8 9 10 11 12 13 14 15 16 17 18 19 20 21 22 23 24 25 26 27 28 29 30 31 32 33 34 35 36 37 38 39 40 41 42 43 44 45 46 47 48 49 50

000
ASUS43 KLSX 011457
RWRMO

WEATHER SUMMARY FOR MISSOURI
NATIONAL WEATHER SERVICE SPRINGFIELD MO
1000 AM CDT SUN MAY 01 2016

NOTE: "FAIR" INDICATES FEW OR NO CLOUDS BELOW 12,000 FEET WITH NO
       SIGNIFICANT WEATHER AND/OR OBSTRUCTIONS TO VISIBILITY.
       CURRENT SKY AND/OR WEATHER CONDITIONS ARE NOT AVAILABLE FOR
       CHILLICOTHE AND FARMINGTON.

MOZ001>031-035>038-043-044-053-054-011600-
...NORTHERN AND WESTERN MISSOURI...

CITY           SKY/WX    TMP DP  RH WIND       PRES   REMARKS
KANSAS CTY INT PTSUNNY   56  48  74 W10       29.98R
LEE`S SUMMIT   MOSUNNY   57  44  62 W10       29.98R
ST JOSEPH      CLOUDY    53  49  86 N8        29.98R
CHILLICOTHE      N/A     53  50  89 NE5       29.97R
KIRKSVILLE     CLOUDY    51  48  89 NE3       29.97R

$$
MOZ066>068-077>081-088>096-101>105-011600-
...SOUTHWEST MISSOURI...

CITY           SKY/WX    TMP DP  RH WIND       PRES   REMARKS
SPRINGFIELD    SUNNY     60  45  57 W9        30.00R
JOPLIN         SUNNY     57  47  69 W7        30.01F
BRANSON        SUNNY     59  45  58 W5        30.01R

$$
MOZ032>034-039>042-045>050-055>058-069>072-011600-
...CENTRAL MISSOURI...

CITY           SKY/WX    TMP DP  RH WIND       PRES   REMARKS
COLUMBIA       PTSUNNY   63  55  77 SW10      29.94R
JEFFERSON CITY MOSUNNY   60  55  83 W6        29.95R
ROLLA          SUNNY     63  51  65 W8        29.93R
SEDALIA        MOSUNNY   61  49  64 W13       29.98R
WARRENSBURG    CLOUDY    57  41  54 W9        29.98R

$$
MOZ051-052-059>065-011600-
...EAST CENTRAL MISSOURI...

CITY           SKY/WX    TMP DP  RH WIND       PRES   REMARKS
ST LOUIS INTL  CLOUDY    63  58  83 CALM      29.93R

$$
MOZ072>076-082>087-097>100-106>115-011600-
...SOUTH CENTRAL AND SOUTHEAST MISSOURI...

CITY           SKY/WX    TMP DP  RH WIND       PRES   REMARKS
CAPE GIRARDEAU NOT AVBL
POPLAR BLUFF   MOSUNNY   70  61  73 SW6       29.92R

$$


USA.gov is the U.S. government's official web portal to all federal, state and local government web resources and services.